RH
44 43 41 39 39 40 40 42 44 43 37 35 36 38 40 41 42 41 39 41 44 46 46 48 55 62 65 68 69 70 70 70 70 68 65 63 63 64 63 61 58 56 55 55 57 60 60 59 58 58 56 54 54 54 54 55 55 52 48 46 47 50 52 53 50 46 44 42 40 39 39 41 49 59 62 63 64 62 62 62 62 63 64 66 69
43 43 42 40 39 41 41 44 46 44 40 38 39 42 46 46 43 40 41 43 45 47 48 51 58 62 65 68 70 71 70 69 68 68 67 65 64 65 65 63 61 59 59 59 61 62 61 60 60 60 58 56 57 58 59 58 59 57 52 49 48 49 53 54 53 49 46 43 41 39 38 38 41 53 59 61 63 63 63 63 61 62 64 67 70
44 44 43 41 42 42 43 47 48 46 44 42 44 45 47 48 45 43 44 44 42 46 51 53 59 62 64 69 71 70 68 66 65 66 65 64 64 65 63 63 61 59 59 60 61 61 61 61 62 62 61 59 58 59 60 61 64 65 63 60 56 54 54 57 59 58 53 47 44 41 41 40 38 45 54 60 62 61 64 66 63 61 64 68 71
46 44 44 44 44 44 46 49 50 48 46 46 47 47 48 49 47 46 44 41 42 48 52 53 57 62 67 70 70 69 66 64 64 64 61 62 64 63 61 60 61 59 58 59 60 60 60 62 63 61 61 61 62 61 62 65 69 69 67 66 63 60 59 61 63 64 62 56 49 45 43 39 35 37 45 58 63 61 65 69 64 62 64 68 71
48 45 43 44 46 46 49 52 53 51 48 51 52 50 50 48 46 45 43 43 45 50 52 51 55 61 69 71 69 69 65 59 61 62 60 61 63 63 60 59 61 60 60 60 61 61 61 62 62 60 61 62 65 64 63 68 70 67 65 63 63 64 64 64 64 65 66 62 57 51 46 40 34 32 37 49 59 61 64 66 64 63 66 69 70
51 46 44 45 47 48 50 53 56 54 52 55 55 52 52 50 46 45 47 49 50 51 51 51 55 62 69 70 67 66 62 58 60 62 62 63 66 65 62 61 62 62 61 60 61 61 62 63 61 59 61 62 65 65 66 70 69 68 68 64 64 65 66 65 65 65 65 64 63 58 51 43 38 35 33 39 49 59 64 64 64 66 68 69 69
51 46 46 47 48 49 51 55 57 56 56 57 54 52 54 53 47 46 49 50 49 49 49 51 57 63 66 66 64 61 61 61 62 64 65 65 68 67 65 64 63 62 62 60 60 60 60 60 59 60 61 62 64 63 67 70 68 69 68 63 64 65 66 68 65 63 64 66 66 64 56 46 44 42 38 36 39 50 60 62 64 67 69 70 68
50 47 49 47 50 52 53 56 59 60 59 56 54 54 55 52 48 49 50 47 45 46 48 51 57 62 63 63 61 60 62 63 63 65 66 67 68 67 66 65 64 62 60 59 60 60 59 59 59 60 62 63 65 64 68 71 66 64 62 59 64 66 65 63 59 57 61 67 67 65 58 48 48 47 43 39 34 40 51 57 62 66 69 71 69
48 50 51 49 52 57 56 55 55 57 54 51 51 54 54 49 48 51 49 45 43 45 48 52 57 60 61 62 61 61 64 66 66 67 66 67 66 64 63 62 61 60 58 59 60 58 59 59 59 60 62 64 65 66 70 69 61 58 59 62 67 66 61 55 52 51 55 62 64 61 54 48 48 49 45 41 36 37 43 52 61 66 69 72 70
49 52 55 53 55 59 57 54 53 52 51 47 47 50 50 49 50 50 46 42 43 46 50 56 59 60 60 61 60 61 64 66 66 66 65 64 63 60 58 57 58 58 58 60 60 59 60 59 60 61 62 63 64 67 70 67 57 54 61 69 72 66 55 50 48 47 50 56 57 55 52 48 48 49 46 42 39 38 39 46 60 66 69 72 70
51 54 57 55 56 58 58 55 52 51 50 46 43 46 48 49 51 46 41 41 43 47 52 57 60 60 61 61 62 61 63 66 66 66 65 63 61 59 56 57 57 58 61 63 62 62 62 61 62 61 61 61 62 66 69 64 53 52 62 70 74 66 52 47 47 45 47 48 48 49 49 47 48 49 48 43 41 41 40 44 58 66 69 71 70
54 56 57 55 55 58 58 56 52 49 48 42 41 47 48 48 48 42 39 41 44 48 55 58 57 58 61 61 61 60 62 65 65 66 65 62 60 58 57 59 59 61 65 66 64 64 63 63 63 61 61 61 62 64 66 62 52 53 65 69 69 65 51 46 46 42 42 43 43 45 45 46 47 49 49 45 42 42 41 47 61 68 68 70 69
55 55 57 53 53 55 53 53 51 47 44 41 43 48 45 44 44 41 39 42 48 52 57 60 58 59 60 59 61 60 60 64 65 63 63 61 59 58 60 64 65 65 67 66 65 67 66 65 67 65 63 62 61 62 62 60 54 54 63 66 66 65 54 46 42 38 39 41 41 43 45 45 45 47 48 45 42 42 43 49 62 67 66 67 67
55 54 55 51 50 50 50 51 50 46 43 45 49 48 43 42 41 38 39 45 51 53 57 60 60 61 60 58 61 61 59 63 65 62 62 63 62 61 63 68 69 67 67 66 65 69 70 68 70 68 63 59 58 60 59 58 57 53 58 64 65 64 56 46 39 34 37 38 39 42 44 44 43 43 44 43 40 40 44 48 58 65 65 65 65
55 52 50 48 46 47 50 50 48 45 44 48 50 45 42 40 38 38 40 47 53 53 55 58 59 60 60 58 61 61 59 61 64 64 64 66 64 63 63 65 67 66 65 66 65 69 71 67 68 65 58 55 55 59 58 56 56 54 56 62 62 59 55 50 39 31 33 35 36 39 40 41 40 38 38 40 39 38 43 47 52 62 65 64 63
54 50 46 44 43 44 47 46 44 44 43 45 45 40 38 37 38 42 45 48 52 53 54 57 59 59 60 60 61 62 60 60 63 64 65 67 64 62 62 62 64 64 62 63 64 66 67 64 63 59 54 52 53 56 57 53 51 50 53 59 61 55 51 51 41 30 32 34 35 38 38 37 37 35 35 38 38 37 42 47 50 58 62 61 61
52 47 44 41 39 40 42 40 39 40 40 42 41 36 36 39 43 47 49 51 53 54 54 55 57 58 59 61 61 61 61 61 63 63 64 66 64 61 61 61 61 59 57 61 65 64 64 62 60 56 52 49 49 52 54 50 45 44 48 53 57 53 48 49 41 29 30 34 36 37 36 34 33 33 34 35 37 38 42 46 49 56 60 60 61
48 44 42 38 36 36 36 36 35 36 38 41 38 35 38 44 48 50 52 54 54 54 53 51 52 56 58 60 61 60 61 63 64 65 65 63 62 62 61 59 57 56 57 60 63 62 62 63 58 54 49 45 44 46 49 48 43 41 43 48 51 51 47 46 40 29 29 35 37 37 35 33 32 31 33 34 36 39 42 45 49 53 57 58 61
44 41 40 36 35 34 32 33 35 35 38 38 37 37 42 47 52 53 54 53 51 49 48 47 49 54 57 60 62 60 60 63 65 68 67 62 61 63 62 60 58 58 58 59 62 61 61 62 58 53 49 44 41 42 44 45 43 38 38 45 49 47 45 44 38 29 30 35 37 37 35 33 32 31 34 36 38 41 44 46 49 53 55 56 60
41 39 38 35 34 32 31 34 37 38 39 39 37 37 41 48 55 57 54 50 47 46 46 46 48 53 57 58 60 61 61 64 66 68 70 64 61 62 62 61 62 62 61 61 62 61 61 61 59 54 52 47 41 40 41 39 38 36 35 40 45 46 44 43 38 30 29 33 36 36 34 31 31 32 34 37 38 41 45 47 50 52 54 55 57
41 40 38 35 31 29 30 34 38 41 42 42 39 38 41 49 55 54 49 46 46 47 47 46 47 50 56 57 59 62 62 63 65 69 69 64 62 62 61 61 64 63 62 63 63 63 63 62 59 57 53 50 46 43 41 37 35 34 34 36 38 42 43 43 41 35 31 31 35 36 34 31 31 32 35 38 39 42 46 49 50 52 53 54 54
43 41 38 34 29 28 31 35 37 39 42 43 41 40 44 51 54 50 47 48 48 48 47 45 46 49 56 61 61 62 62 62 66 70 69 64 64 62 61 62 63 62 61 63 64 65 65 62 61 60 55 53 52 47 42 39 36 34 33 32 33 35 39 41 42 40 35 33 34 36 36 33 32 33 35 38 40 43 45 49 51 52 53 53 54
44 42 36 31 29 31 33 35 35 36 37 39 38 39 46 52 54 52 53 53 51 50 46 45 47 51 58 63 63 63 63 63 67 70 68 66 65 63 61 63 63 61 59 61 63 65 67 66 64 64 59 55 54 52 47 44 42 39 34 30 30 30 33 38 41 41 39 36 34 35 36 35 34 34 35 36 39 41 43 46 49 51 51 52 53
43 38 33 30 31 34 35 33 32 33 34 35 34 37 44 50 53 55 59 58 54 52 51 49 52 55 59 62 63 63 63 65 67 68 69 68 66 62 60 62 64 61 58 59 62 65 66 67 65 65 63 59 57 56 54 51 49 45 38 31 30 29 30 33 36 39 39 37 35 34 34 35 34 33 33 33 35 36 38 41 44 47 49 50 51
40 35 32 31 33 34 33 29 28 30 33 33 33 38 43 48 54 59 62 60 55 54 55 54 57 60 61 61 63 65 65 66 68 69 69 67 64 60 57 61 63 60 58 58 61 62 63 66 65 65 66 64 61 60 59 57 54 51 47 39 33 30 30 31 32 34 36 36 36 34 33 33 33 34 33 33 32 32 34 36 39 42 44 45 46
38 35 33 34 34 32 31 28 27 30 33 34 35 40 45 50 53 55 56 55 53 53 54 55 57 61 63 61 61 63 64 65 68 69 66 63 62 59 55 58 61 59 57 57 58 57 58 63 63 63 68 68 65 63 62 61 58 55 53 48 42 36 33 32 31 31 31 32 33 34 33 32 31 31 33 34 35 35 35 35 36 38 39 40 41
40 37 35 36 34 32 31 30 30 31 34 36 38 42 46 49 49 48 48 49 49 51 52 53 56 61 63 61 59 61 64 66 67 67 64 61 62 60 56 58 59 57 55 54 56 55 55 61 61 61 69 71 67 65 64 63 61 59 57 54 51 48 42 37 33 31 29 29 30 31 31 32 31 30 30 31 32 34 36 37 38 38 39 39 40
43 39 38 38 35 32 33 35 34 34 35 37 39 42 44 45 45 44 43 42 44 46 48 50 54 57 60 59 59 60 65 68 66 64 63 62 63 61 58 58 57 56 53 50 54 56 56 62 64 64 70 72 70 69 67 63 62 63 62 59 57 57 53 47 40 35 31 29 28 29 29 30 30 30 30 29 29 30 31 32 34 35 36 37 38
45 44 42 41 37 35 36 37 38 37 38 39 40 41 41 41 42 42 41 40 42 45 48 50 51 53 55 57 60 61 62 64 63 61 60 59 59 57 56 56 55 55 53 50 50 53 55 60 64 64 70 74 73 72 70 66 64 64 65 64 63 62 62 59 54 47 41 34 30 28 28 28 29 29 30 29 29 29 28 28 29 29 30 32 32
48 47 45 43 39 37 37 38 39 39 41 42 42 41 40 39 40 40 39 40 43 45 47 49 50 52 52 54 60 62 60 58 57 56 55 54 52 50 53 56 55 55 57 56 54 53 52 55 58 60 66 72 71 69 69 69 67 67 69 68 67 67 67 67 64 60 55 47 40 35 32 30 29 29 28 29 29 29 29 28 27 27 27 27 28
50 48 46 43 40 39 39 40 38 38 41 43 44 43 41 41 41 40 38 40 44 46 47 49 51 51 49 48 54 59 57 56 55 52 51 49 47 48 54 57 55 54 56 57 57 56 55 57 60 64 68 70 69 68 68 68 68 69 72 73 73 73 71 70 69 68 65 60 53 47 42 39 35 33 31 30 29 29 29 29 29 28 27 26 25
50 48 46 43 40 40 41 39 38 38 39 41 43 44 43 44 43 42 42 44 47 49 51 52 50 48 46 47 52 58 57 56 54 50 48 46 45 48 54 56 55 54 54 55 57 58 59 61 65 70 72 73 73 72 70 69 68 69 71 73 76 77 74 72 70 71 70 69 65 59 53 49 46 43 40 37 35 33 31 30 30 30 30 30 29
49 46 44 43 42 41 40 38 38 38 38 39 41 42 43 44 44 44 46 48 50 51 52 54 54 51 49 49 52 54 53 52 51 48 47 47 47 50 53 53 52 54 56 57 60 62 62 62 63 66 69 70 71 71 69 69 70 70 70 70 71 72 72 72 73 72 72 72 73 71 65 59 55 51 49 47 45 43 41 38 36 34 33 32 32
47 44 43 44 43 41 39 37 37 38 37 38 39 40 42 44 45 46 48 50 50 50 50 52 53 54 54 52 51 51 52 54 56 54 49 48 49 51 52 51 52 53 57 61 64 66 65 66 65 65 66 67 68 68 68 68 70 71 71 71 69 69 69 70 72 73 73 73 73 73 70 66 64 60 58 56 54 52 51 49 48 45 43 41 39
44 43 42 42 43 41 39 38 38 38 37 38 38 41 43 45 47 48 49 51 52 52 51 51 53 55 55 54 51 52 54 58 63 63 58 52 52 53 52 52 55 58 61 63 66 68 68 68 69 68 68 68 68 68 69 70 71 72 72 73 71 70 71 72 72 74 75 74 74 73 71 71 70 69 69 69 67 62 57 55 54 54 53 53 52
42 42 41 41 40 39 38 38 38 39 38 38 40 42 44 46 48 50 50 51 53 53 54 54 56 56 54 51 51 54 57 58 59 60 59 55 53 54 55 57 60 63 65 67 68 70 70 70 70 70 71 71 70 69 71 71 72 73 74 74 73 73 74 75 75 75 73 74 75 74 74 75 74 74 75 77 77 75 70 65 60 58 57 58 59
43 42 42 41 39 38 36 37 38 39 39 39 40 43 45 47 49 50 50 52 53 54 54 54 54 52 50 51 54 56 59 61 58 56 58 58 54 53 55 59 63 66 67 68 68 69 69 68 67 66 68 69 69 69 68 69 70 72 72 72 73 74 76 77 77 75 74 76 77 75 74 75 75 75 75 77 80 81 80 77 73 70 67 67 68
43 42 42 41 40 38 37 37 38 39 40 40 41 44 45 46 47 47 48 51 53 52 51 50 49 48 50 54 57 57 60 65 64 61 60 57 52 50 53 57 62 65 65 66 66 66 66 65 64 63 64 64 65 64 64 65 66 67 67 69 71 72 73 76 77 74 73 76 78 77 75 75 76 77 76 76 78 81 82 82 82 80 78 78 78
41 40 39 40 39 39 38 38 39 39 41 43 44 44 45 46 46 45 45 46 47 45 43 44 47 48 52 56 58 57 59 63 64 62 60 58 53 50 51 54 56 59 61 62 63 64 63 62 62 62 63 62 62 62 61 61 61 62 63 65 68 70 70 71 73 72 71 72 76 79 79 77 78 78 78 78 78 79 81 81 82 82 81 82 84
44 41 38 38 38 40 40 39 39 40 41 45 47 47 47 47 47 47 46 45 44 42 40 42 47 50 54 59 59 58 60 63 63 62 61 61 58 54 54 57 59 59 58 59 61 62 61 60 60 61 62 62 62 62 62 61 59 60 62 64 67 70 71 70 71 71 69 72 77 82 82 80 78 76 76 77 78 80 82 83 82 82 82 84 85
46 45 43 41 39 40 40 40 40 40 42 44 47 48 48 49 49 50 50 49 47 45 43 43 45 46 51 55 54 54 56 59 60 63 64 64 61 58 58 60 62 62 62 61 62 62 62 62 62 63 63 62 62 65 67 66 63 63 64 66 69 72 75 76 77 75 71 73 80 81 81 80 79 77 76 76 78 80 83 84 83 82 82 83 84
49 48 47 45 44 43 42 41 41 41 43 44 45 47 48 49 51 52 52 51 48 47 47 45 43 42 45 48 48 49 50 52 55 62 67 67 65 63 62 61 60 60 60 60 60 62 62 62 62 63 62 63 65 68 71 72 70 68 69 70 72 75 78 81 84 81 76 76 80 80 80 80 80 79 78 78 79 80 80 81 82 82 82 81 82
63 55 50 48 47 47 47 46 44 43 44 44 44 45 46 48 50 52 52 50 49 49 49 47 44 43 42 42 44 45 46 48 53 58 63 65 67 67 65 63 62 59 57 57 57 58 59 58 60 62 62 64 68 72 73 74 74 74 74 76 76 78 79 81 83 82 79 79 79 79 79 79 80 81 81 80 81 82 82 83 83 83 84 82 82
77 69 61 55 51 50 50 48 46 45 46 46 46 46 46 46 49 52 52 52 53 53 51 49 47 46 44 43 41 42 44 48 51 55 57 61 64 66 66 65 62 59 58 58 59 58 57 57 58 59 60 63 70 73 73 73 74 76 78 79 79 78 81 82 81 79 78 77 77 77 78 79 81 82 83 82 83 84 85 84 83 83 84 85 85
79 78 73 66 60 57 56 52 49 47 47 48 49 48 48 47 48 50 51 55 59 60 61 61 56 50 49 49 45 42 44 45 47 51 55 56 56 57 59 59 59 58 56 56 57 57 57 56 57 58 59 63 68 71 71 70 70 73 76 78 77 77 79 80 80 77 76 76 78 79 81 83 84 85 85 85 84 85 86 86 86 87 87 87 89
74 76 78 76 70 65 62 59 56 53 51 50 49 50 49 49 49 49 49 53 56 58 64 72 69 56 50 50 48 45 45 43 43 46 50 50 49 48 49 52 55 57 56 55 54 55 55 55 57 59 60 62 65 67 68 67 69 74 77 77 75 76 76 77 78 78 78 79 80 80 82 86 89 90 90 89 87 87 89 89 89 89 87 86 85
69 70 76 80 78 73 69 65 62 62 60 56 51 49 48 49 49 49 49 50 52 54 59 68 71 61 51 49 49 48 47 45 45 45 46 46 46 47 48 50 54 56 55 55 55 55 54 55 57 58 59 62 66 69 70 70 72 75 77 75 73 74 76 78 80 81 81 82 83 84 86 91 94 95 95 94 93 91 90 89 88 87 85 83 82
65 67 70 75 79 80 78 73 69 68 67 64 60 54 51 50 49 50 51 51 51 52 55 59 61 58 52 50 50 49 48 47 47 47 46 46 47 49 51 52 54 54 55 56 56 56 55 57 59 60 61 65 70 74 77 79 79 80 80 78 75 75 77 79 80 80 81 82 83 85 89 93 95 94 93 92 91 89 88 87 86 86 84 82 81
58 62 66 70 75 79 81 80 77 74 72 71 70 66 62 57 53 50 51 52 51 51 51 53 54 53 50 50 49 47 47 47 48 48 48 48 49 51 51 52 53 55 55 56 57 55 55 56 59 61 64 68 72 75 78 81 84 85 86 85 83 81 80 79 80 81 83 84 86 89 91 93 93 93 92 90 87 86 86 86 85 85 84 82 81
56 58 62 66 71 75 76 77 77 77 77 76 75 74 74 71 66 60 55 52 51 51 51 51 51 51 50 48 47 46 46 47 48 49 49 49 50 51 50 51 54 56 57 57 58 57 57 59 61 63 67 71 74 76 79 81 83 84 85 85 84 83 81 80 80 83 84 85 86 88 89 90 92 92 91 90 88 86 86 86 86 84 81 79 76
55 57 60 63 66 69 69 70 73 76 78 77 76 77 78 79 78 74 71 66 60 59 59 58 56 55 53 51 49 49 48 48 50 51 52 52 53 52 52 54 57 59 61 62 63 64 66 69 70 72 74 76 77 78 80 81 82 83 83 82 81 81 80 80 80 81 81 81 83 84 84 86 88 88 88 86 84 84 83 82 79 76 74 73 71